Location: ?????????
(41.2286°N, 23.0068°E)
Time: 08:56:54
(UTC+00:00)

Cosmos 1703 Rocket - Pass Details

Date: 08 November 2025
Orbit: 600 x 625 km, 82.5° (Epoch: 04 December)

Event Time Altitude Azimuth Distance (km) Brightness Sun altitude
Rises 03:31:43 0° 193° (SSW) 2,846 6.9 -18.3°
Reaches altitude 10° 03:33:56 10° 196° (SSW) 1,951 6.0 -17.9°
Maximum altitude 03:38:13 66° 279° (W) 670 3.4 -17.1°
Drops below altitude 10° 03:42:35 10° 2° (N) 1,983 6.1 -16.3°
Sets 03:44:51 0° 5° (N) 2,897 7.0 -15.8°
